TimeCDT,TemperatureF,Dew PointF,Humidity,Sea Level PressureIn,VisibilityMPH,Wind Direction,Wind SpeedMPH,Gust SpeedMPH,PrecipitationIn,Events,Conditions,WindDirDegrees,DateUTC
12:51 AM,73.0,68.0,84,30.21,10.0,NNE,4.6,-,N/A,,Clear,20,2013-07-15 05:51:00
1:51 AM,73.0,68.0,84,30.20,10.0,ENE,3.5,-,N/A,,Clear,60,2013-07-15 06:51:00
2:51 AM,72.0,68.0,87,30.22,10.0,NE,5.8,-,N/A,,Clear,40,2013-07-15 07:51:00
3:51 AM,71.1,68.0,90,30.22,10.0,Calm,Calm,-,N/A,,Clear,0,2013-07-15 08:51:00
4:51 AM,72.0,69.1,91,30.22,10.0,North,4.6,-,N/A,,Partly Cloudy,10,2013-07-15 09:51:00
5:51 AM,72.0,70.0,93,30.23,10.0,North,3.5,-,N/A,,Scattered Clouds,10,2013-07-15 10:51:00
6:51 AM,73.9,70.0,87,30.24,10.0,Calm,Calm,-,N/A,,Partly Cloudy,0,2013-07-15 11:51:00
7:51 AM,77.0,72.0,84,30.25,10.0,Calm,Calm,-,N/A,,Partly Cloudy,0,2013-07-15 12:51:00
8:51 AM,82.0,72.0,71,30.25,10.0,Calm,Calm,-,N/A,,Partly Cloudy,0,2013-07-15 13:51:00
9:51 AM,86.0,72.0,63,30.25,10.0,Calm,Calm,-,N/A,,Scattered Clouds,0,2013-07-15 14:51:00
10:51 AM,89.1,70.0,53,30.24,10.0,Calm,Calm,-,N/A,,Mostly Cloudy,0,2013-07-15 15:51:00
11:51 AM,87.1,72.0,61,30.25,10.0,East,12.7,17.3,N/A,,Mostly Cloudy,100,2013-07-15 16:51:00
12:51 PM,87.1,73.9,65,30.25,10.0,NE,9.2,17.3,N/A,,Mostly Cloudy,50,2013-07-15 17:51:00
1:51 PM,87.1,73.9,65,30.24,10.0,ENE,9.2,17.3,N/A,,Mostly Cloudy,70,2013-07-15 18:51:00
2:51 PM,86.0,72.0,63,30.22,10.0,East,11.5,-,N/A,,Mostly Cloudy,90,2013-07-15 19:51:00
3:51 PM,87.1,72.0,61,30.22,10.0,ENE,10.4,-,N/A,,Mostly Cloudy,70,2013-07-15 20:51:00
4:51 PM,82.9,73.0,72,30.22,10.0,South,5.8,-,0.00,Rain,Light Rain,180,2013-07-15 21:51:00
5:51 PM,82.0,73.9,76,30.20,10.0,NE,8.1,-,0.09,,Mostly Cloudy,50,2013-07-15 22:51:00
6:51 PM,81.0,73.0,77,30.21,10.0,East,6.9,-,N/A,,Mostly Cloudy,80,2013-07-15 23:51:00
7:51 PM,80.1,72.0,76,30.21,10.0,East,6.9,-,N/A,,Mostly Cloudy,90,2013-07-16 00:51:00
8:51 PM,79.0,72.0,79,30.22,10.0,East,8.1,-,N/A,,Mostly Cloudy,80,2013-07-16 01:51:00
9:51 PM,78.1,73.0,84,30.25,10.0,East,5.8,-,N/A,,Mostly Cloudy,80,2013-07-16 02:51:00
10:51 PM,78.1,73.0,84,30.24,10.0,ESE,6.9,-,N/A,,Scattered Clouds,110,2013-07-16 03:51:00
11:51 PM,75.9,73.0,91,30.24,10.0,SE,4.6,-,N/A,,Partly Cloudy,140,2013-07-16 04:51:00